User: anonymous   Login
Location: The Jewett Observatory
(46.7288°N, 117.1525°W)
Time: 17:47:14
(UTC-07:00)
Language:

Cosmos 1844 Rocket - Orbit

View from above orbital plane
View from above orbital plane
View from above satellite
View from above satellite

Ground track
Ground track

The orbit data is extracted from the following two-line orbital elements,

1 17974U 87041B   17084.57041399 +.00000203 +00000-0 +12437-3 0  9991
2 17974 071.0064 086.0139 0013465 170.6709 328.3727 14.17219569544633
Epoch (UTC): 25 March 2017 13:41:23
Eccentricity: 0.0013465
inclination: 71.0064°
perigee height: 825 km
apogee height: 844 km
right ascension of ascending node: 86.0139°
argument of perigee: 170.6709°
revolutions per day: 14.17219569
mean anomaly at epoch: 328.3727°
orbit number at epoch: 54463

The dashed part of the orbit path shows where the satellite is in the earth's shadow,  

DLR